Flag for Austria Weather past 2 weeks in Güssing, Burgenland, Austria

Now
36 °F

Chilly.


Feels Like: 36 °F
Forecast: 38 / 50 °F
Wind: 1 mph from Southeast

Location: Murska Sobota

Current Time: Mar 31, 2015 at 5:28:54 AM

Latest Report: Mar 31, 2015 at 4:00 AM


Visibility: N/A

Pressure: 29.93 "Hg

Humidity: 80%

Dew point: 30 °F

Location of GüssingLocation

Historic Weather in Güssing — Graph

°F

Güssing temperature yesterday

Maximum temperature yesterday: 61 °F (at 2:00 PM)
Minimum temperature yesterday: 45 °F (at 9:00 PM)
Average temperature yesterday: 52 °F

Past Weeks' High & Low Weather Summary

 TemperatureHumidityPressure
High65 °F (Mar 26, 3:00 PM)100% (Mar 27, 4:00 AM)30.52 "Hg (Mar 27, 4:00 AM)
Low27 °F (Mar 20, 6:00 AM)33% (Mar 18, 3:00 PM)29.47 "Hg (Mar 30, 11:00 AM)
Average46 °F67%30.05 "Hg
* Reported Mar 16 3:00 AM — Mar 31 4:00 AM, Güssing, Weather by CustomWeather, © 2015

Note: Actual official high and low records may vary slightly from our data, if they occured in-between our weather recording intervals... More about our weather records

Advertising

Güssing weather history for previous 24 hours

 ConditionsComfort  
Time TempWeatherWind HumidityBarometerVisibility
4:00 AM
Tue, Mar 31
36 °FChilly.1 mph80%29.93 "HgN/A
3:00 AM36 °FChilly.No wind78%29.93 "HgN/A
2:00 AM40 °FQuite cool.2 mph66%29.92 "HgN/A
1:00 AM44 °FQuite cool.3 mph59%29.90 "HgN/A
12:00 AM45 °FCool.3 mph54%29.88 "HgN/A
11:00 PM
Mon, Mar 30
47 °FCool.5 mph52%29.85 "HgN/A
10:00 PM48 °FCool.5 mphN/AN/AN/A
9:00 PM45 °FQuite cool.1 mph92%29.78 "HgN/A
8:00 PM49 °FPassing clouds.2 mph82%29.70 "Hg6 mi
7:00 PM51 °FCool.2 mph76%29.66 "HgN/A
6:00 PM53 °FCool.5 mph72%29.63 "HgN/A
5:00 PM53 °FCool.1 mph80%29.59 "HgN/A
4:00 PM53 °FCool.2 mph80%29.56 "HgN/A
3:00 PM51 °FLight rain. Overcast.6 mph84%29.55 "Hg6 mi
2:00 PM61 °FOvercast.6 mph49%29.50 "Hg12 mi
11:00 AM57 °FRefreshingly cool.5 mph50%29.47 "HgN/A
10:00 AM53 °FCool.3 mph55%29.53 "HgN/A
9:00 AM53 °FCool.3 mph52%29.53 "HgN/A
8:00 AM53 °FOvercast.6 mph52%29.50 "Hg12 mi
7:00 AM53 °FOvercast.6 mph51%29.54 "Hg6 mi
6:00 AM53 °FCool.3 mph54%29.53 "HgN/A
5:00 AM53 °FCool.3 mph56%29.55 "HgN/A
Weather by CustomWeather, © 2015

See weather overviewHow to use our weather pages